Location: Curtidor
(10.3472°N, 67.2917°W)
Time: 04:55:59
(UTC+00:00)

Cosmos 1151 Rocket - Pass Details

Date: 13 June 2024
Orbit: 588 x 610 km, 82.5° (Epoch: 21 July)

Event Time Altitude Azimuth Distance (km) Brightness Sun altitude
Rises 23:17:19 0° 177° (S) 2,856 6.2 -6.7°
Reaches altitude 10° 23:19:33 10° 174° (S) 1,949 5.3 -7.2°
Maximum altitude 23:23:49 62° 93° (E) 677 3.0 -8.1°
Drops below altitude 10° 23:28:02 10° 13° (NNE) 1,935 5.8 -9.1°
Sets 23:30:15 0° 10° (N) 2,833 6.7 -9.5°
